This is the latest recevied weather packets stored in our database for station/object N4DWK. If no packets are shown the sender has not sent any weather packets the latest 10 day(s).
| Time | Temp. | Humidity | Pressure | Rain* | Wind** | Luminosity | Snow |
|---|---|---|---|---|---|---|---|
| 1777290907 | 7.22° C | 93% | 1024.9 hPa | 0 mm | - | 40 W/m² | - |
| 1777290609 | 7.22° C | 93% | 1024.9 hPa | 0 mm | - | 39 W/m² | - |
| 1777290307 | 6.67° C | 93% | 1024.7 hPa | 0 mm | - | 37 W/m² | - |
| 1777289707 | 6.67° C | 93% | 1024.5 hPa | 0 mm | - | 35 W/m² | - |
| 1777289107 | 6.11° C | 93% | 1024.2 hPa | 0 mm | - | 32 W/m² | - |
| 1777288807 | 6.11° C | 93% | 1024.1 hPa | 0 mm | - | 32 W/m² | - |
| 1777288508 | 5.56° C | 93% | 1024 hPa | 0 mm | - | 30 W/m² | - |
| 1777288207 | 5.56° C | 93% | 1023.8 hPa | 0 mm | - | 28 W/m² | - |
| 1777287907 | 5.56° C | 93% | 1023.8 hPa | 0 mm | - | 25 W/m² | - |
| 1777287007 | 5.56° C | 93% | 1023.6 hPa | 0 mm | - | 16 W/m² | - |
| 1777286707 | 5.56° C | 93% | 1023.5 hPa | 0 mm | - | 12 W/m² | - |
| 1777286407 | 5.56° C | 93% | 1023.5 hPa | 0 mm | - | 7 W/m² | - |
| 1777286107 | 5.56° C | 93% | 1023.6 hPa | 0 mm | - | 5 W/m² | - |
| 1777285807 | 5.56° C | 93% | 1023.5 hPa | 0 mm | - | 0 W/m² | - |
| 1777285507 | 5.56° C | 93% | 1023.5 hPa | 0 mm | - | 0 W/m² | - |
| 1777285206 | 5.56° C | 93% | 1023.4 hPa | 0 mm | - | 0 W/m² | - |
| 1777284907 | 5.56° C | 93% | 1023.3 hPa | 0 mm | - | 0 W/m² | - |
| 1777284607 | 5.56° C | 93% | 1023.2 hPa | 0 mm | - | 0 W/m² | - |
| 1777284308 | 5.56° C | 93% | 1023.2 hPa | 0 mm | - | 0 W/m² | - |
| 1777281907 | 5.56° C | 93% | 1023.2 hPa | 0 mm | - | 0 W/m² | - |
| 1777281607 | 5.56° C | 92% | 1023.2 hPa | 0 mm | - | 0 W/m² | - |
| 1777281307 | 5.56° C | 92% | 1023.2 hPa | 0 mm | - | 0 W/m² | - |
| 1777281007 | 5.56° C | 92% | 1023.2 hPa | 0 mm | - | 0 W/m² | - |
| 1777280706 | 5.56° C | 92% | 1023.2 hPa | 0 mm | - | 0 W/m² | - |
| 1777280407 | 5.56° C | 92% | 1023.2 hPa | 0 mm | - | 0 W/m² | - |
* Rain latest hour (hover to see other rain measurements)
** Current wind speed in m/s (hover to see current wind gust speed)